Time,TemperatureF,DewpointF,PressureIn,WindDirection,WindDirectionDegrees,WindSpeedMPH,WindSpeedGustMPH,Humidity,HourlyPrecipIn,Conditions,Clouds,dailyrainin,SolarRadiationWatts/m^2,SoftwareType,DateUTC
2013-03-02 00:02:00,36.0,30.0,-100.00,WSW,249,0.0,7.0,79,0.00,,,0.00,0.000000,,2013-03-02 05:02:00,
2013-03-02 00:32:00,35.0,31.0,-100.00,SW,224,0.0,0.0,85,0.00,,,0.00,0.000000,,2013-03-02 05:32:00,
2013-03-02 00:42:00,35.0,31.0,-100.00,SW,224,0.0,0.0,85,0.00,,,0.00,0.000000,,2013-03-02 05:42:00,
2013-03-02 00:52:00,35.0,31.0,-100.00,SW,224,0.0,0.0,85,0.00,,,0.00,0.000000,,2013-03-02 05:52:00,
2013-03-02 01:02:00,35.0,31.0,-100.00,SW,224,0.0,0.0,85,0.00,,,0.00,0.000000,,2013-03-02 06:02:00,
2013-03-02 01:32:00,35.0,32.0,-100.00,SW,220,0.0,0.0,87,0.00,,,0.00,0.000000,,2013-03-02 06:32:00,
2013-03-02 01:42:00,35.0,32.0,-100.00,SW,220,0.0,0.0,87,0.00,,,0.00,0.000000,,2013-03-02 06:42:00,
2013-03-02 01:52:00,35.0,32.0,-100.00,SW,220,0.0,0.0,87,0.00,,,0.00,0.000000,,2013-03-02 06:52:00,
2013-03-02 02:02:00,35.0,32.0,-100.00,SW,220,0.0,0.0,87,0.00,,,0.00,0.000000,,2013-03-02 07:02:00,
2013-03-02 02:32:00,35.0,32.0,-100.00,SW,230,0.0,0.0,87,0.00,,,0.00,0.000000,,2013-03-02 07:32:00,
2013-03-02 02:42:00,35.0,32.0,-100.00,SW,230,0.0,0.0,87,0.00,,,0.00,0.000000,,2013-03-02 07:42:00,
2013-03-02 02:52:00,35.0,32.0,-100.00,SW,230,0.0,0.0,87,0.00,,,0.00,0.000000,,2013-03-02 07:52:00,
2013-03-02 03:01:00,35.0,32.0,-100.00,SW,230,0.0,0.0,87,0.00,,,0.00,0.000000,,2013-03-02 08:01:00,
2013-03-02 03:32:00,35.0,32.0,-100.00,SSW,211,0.0,0.0,89,0.00,,,0.00,0.000000,,2013-03-02 08:32:00,
2013-03-02 03:43:00,35.0,32.0,-100.00,SSW,211,0.0,0.0,89,0.00,,,0.00,0.000000,,2013-03-02 08:43:00,
2013-03-02 03:52:00,35.0,32.0,-100.00,SSW,211,0.0,0.0,89,0.00,,,0.00,0.000000,,2013-03-02 08:52:00,
2013-03-02 04:02:00,35.0,32.0,-100.00,SSW,211,0.0,0.0,89,0.00,,,0.00,0.000000,,2013-03-02 09:02:00,
2013-03-02 04:32:00,33.0,31.0,-100.00,South,181,0.0,0.0,94,0.01,,,0.01,0.000000,,2013-03-02 09:32:00,
2013-03-02 04:42:00,33.0,31.0,-100.00,South,181,0.0,0.0,94,0.01,,,0.01,0.000000,,2013-03-02 09:42:00,
2013-03-02 04:52:00,33.0,31.0,-100.00,South,181,0.0,0.0,94,0.01,,,0.01,0.000000,,2013-03-02 09:52:00,
2013-03-02 05:01:00,33.0,31.0,-100.00,South,181,0.0,0.0,94,0.01,,,0.01,0.000000,,2013-03-02 10:01:00,
2013-03-02 05:32:00,33.0,31.0,-100.00,WNW,284,0.0,0.0,94,0.00,,,0.01,0.000000,,2013-03-02 10:32:00,
2013-03-02 05:43:00,33.0,31.0,-100.00,WNW,284,0.0,0.0,94,0.00,,,0.01,0.000000,,2013-03-02 10:43:00,
2013-03-02 05:52:00,33.0,31.0,-100.00,WNW,284,0.0,0.0,94,0.00,,,0.01,0.000000,,2013-03-02 10:52:00,
2013-03-02 06:01:00,33.0,31.0,-100.00,WNW,284,0.0,0.0,94,0.00,,,0.01,0.000000,,2013-03-02 11:01:00,
2013-03-02 06:32:00,33.0,32.0,-100.00,SW,235,0.0,0.0,95,0.01,,,0.02,0.000000,,2013-03-02 11:32:00,
2013-03-02 06:42:00,33.0,32.0,-100.00,SW,235,0.0,0.0,95,0.01,,,0.02,0.000000,,2013-03-02 11:42:00,
2013-03-02 06:52:00,33.0,32.0,-100.00,SW,235,0.0,0.0,95,0.01,,,0.02,0.000000,,2013-03-02 11:52:00,
2013-03-02 07:02:00,33.0,32.0,-100.00,SW,235,0.0,0.0,95,0.01,,,0.02,0.000000,,2013-03-02 12:02:00,
2013-03-02 07:33:00,33.0,30.0,-100.00,West,281,0.0,0.0,89,0.00,,,0.02,0.000000,,2013-03-02 12:33:00,
2013-03-02 07:43:00,33.0,30.0,-100.00,West,281,0.0,0.0,89,0.00,,,0.02,0.000000,,2013-03-02 12:43:00,
2013-03-02 07:53:00,33.0,30.0,-100.00,West,281,0.0,0.0,89,0.00,,,0.02,0.000000,,2013-03-02 12:53:00,
2013-03-02 08:01:00,33.0,30.0,-100.00,West,281,0.0,0.0,89,0.00,,,0.02,0.000000,,2013-03-02 13:01:00,
2013-03-02 08:32:00,34.0,28.0,-100.00,WNW,288,1.0,5.0,77,0.00,,,0.02,15.000000,,2013-03-02 13:32:00,
2013-03-02 08:42:00,34.0,28.0,-100.00,WNW,288,1.0,5.0,77,0.00,,,0.02,15.000000,,2013-03-02 13:42:00,
2013-03-02 08:52:00,34.0,28.0,-100.00,WNW,288,1.0,5.0,77,0.00,,,0.02,15.000000,,2013-03-02 13:52:00,
2013-03-02 09:01:00,34.0,28.0,-100.00,WNW,288,1.0,5.0,77,0.00,,,0.02,15.000000,,2013-03-02 14:01:00,
2013-03-02 09:32:00,36.0,26.0,-100.00,NW,316,6.0,11.0,68,0.00,,,0.02,82.000000,,2013-03-02 14:32:00,
2013-03-02 09:42:00,36.0,26.0,-100.00,NW,316,6.0,11.0,68,0.00,,,0.02,82.000000,,2013-03-02 14:42:00,
2013-03-02 09:52:00,36.0,26.0,-100.00,NW,316,6.0,11.0,68,0.00,,,0.02,82.000000,,2013-03-02 14:52:00,
2013-03-02 10:02:00,36.0,26.0,-100.00,NW,316,6.0,11.0,68,0.00,,,0.02,82.000000,,2013-03-02 15:02:00,
2013-03-02 10:32:00,37.0,27.0,-100.00,WNW,294,6.0,11.0,67,0.00,,,0.02,195.000000,,2013-03-02 15:32:00,
2013-03-02 10:42:00,37.0,27.0,-100.00,WNW,294,6.0,11.0,67,0.00,,,0.02,195.000000,,2013-03-02 15:42:00,
2013-03-02 10:52:00,37.0,27.0,-100.00,WNW,294,6.0,11.0,67,0.00,,,0.02,195.000000,,2013-03-02 15:52:00,
2013-03-02 11:02:00,37.0,27.0,-100.00,WNW,294,6.0,11.0,67,0.00,,,0.02,195.000000,,2013-03-02 16:02:00,
2013-03-02 11:32:00,38.0,27.0,-100.00,WNW,293,6.0,13.0,64,0.00,,,0.02,231.000000,,2013-03-02 16:32:00,
2013-03-02 11:42:00,38.0,27.0,-100.00,WNW,293,6.0,13.0,64,0.00,,,0.02,231.000000,,2013-03-02 16:42:00,
2013-03-02 11:52:00,38.0,27.0,-100.00,WNW,293,6.0,13.0,64,0.00,,,0.02,231.000000,,2013-03-02 16:52:00,
2013-03-02 12:01:00,38.0,27.0,-100.00,WNW,293,6.0,13.0,64,0.00,,,0.02,231.000000,,2013-03-02 17:01:00,
2013-03-02 12:32:00,38.0,26.0,-100.00,West,281,6.0,13.0,62,0.00,,,0.02,225.000000,,2013-03-02 17:32:00,
2013-03-02 12:42:00,38.0,26.0,-100.00,West,281,6.0,13.0,62,0.00,,,0.02,225.000000,,2013-03-02 17:42:00,
2013-03-02 12:52:00,38.0,26.0,-100.00,West,281,6.0,13.0,62,0.00,,,0.02,225.000000,,2013-03-02 17:52:00,
2013-03-02 13:02:00,38.0,26.0,-100.00,West,281,6.0,13.0,62,0.00,,,0.02,225.000000,,2013-03-02 18:02:00,
2013-03-02 13:32:00,38.0,27.0,-100.00,NW,322,7.0,15.0,64,0.00,,,0.02,123.000000,,2013-03-02 18:32:00,
2013-03-02 13:42:00,38.0,27.0,-100.00,NW,322,7.0,15.0,64,0.00,,,0.02,123.000000,,2013-03-02 18:42:00,
2013-03-02 13:52:00,38.0,27.0,-100.00,NW,322,7.0,15.0,64,0.00,,,0.02,123.000000,,2013-03-02 18:52:00,
2013-03-02 14:02:00,38.0,27.0,-100.00,NW,322,7.0,15.0,64,0.00,,,0.02,123.000000,,2013-03-02 19:02:00,
2013-03-02 14:32:00,37.0,28.0,-100.00,NW,305,5.0,13.0,70,0.00,,,0.02,127.000000,,2013-03-02 19:32:00,
2013-03-02 14:43:00,37.0,28.0,-100.00,NW,305,5.0,13.0,70,0.00,,,0.02,127.000000,,2013-03-02 19:43:00,
2013-03-02 14:52:00,37.0,28.0,-100.00,NW,305,5.0,13.0,70,0.00,,,0.02,127.000000,,2013-03-02 19:52:00,
2013-03-02 15:01:00,37.0,28.0,-100.00,NW,305,5.0,13.0,70,0.00,,,0.02,127.000000,,2013-03-02 20:01:00,
2013-03-02 15:32:00,38.0,27.0,-100.00,NNW,329,5.0,14.0,63,0.00,,,0.02,133.000000,,2013-03-02 20:32:00,
2013-03-02 15:42:00,38.0,27.0,-100.00,NNW,329,5.0,14.0,63,0.00,,,0.02,133.000000,,2013-03-02 20:42:00,
2013-03-02 15:53:00,38.0,27.0,-100.00,NNW,329,5.0,14.0,63,0.00,,,0.02,133.000000,,2013-03-02 20:53:00,
2013-03-02 16:02:00,38.0,27.0,-100.00,NNW,329,5.0,14.0,63,0.00,,,0.02,133.000000,,2013-03-02 21:02:00,
2013-03-02 16:32:00,38.0,26.0,-100.00,NNW,344,8.0,15.0,62,0.00,,,0.02,101.000000,,2013-03-02 21:32:00,
2013-03-02 16:42:00,38.0,26.0,-100.00,NNW,344,8.0,15.0,62,0.00,,,0.02,101.000000,,2013-03-02 21:42:00,
2013-03-02 16:52:00,38.0,26.0,-100.00,NNW,344,8.0,15.0,62,0.00,,,0.02,101.000000,,2013-03-02 21:52:00,
2013-03-02 17:02:00,38.0,26.0,-100.00,NNW,344,8.0,15.0,62,0.00,,,0.02,101.000000,,2013-03-02 22:02:00,
2013-03-02 17:32:00,38.0,25.0,-100.00,NW,322,8.0,15.0,58,0.00,,,0.02,110.000000,,2013-03-02 22:32:00,
2013-03-02 17:42:00,38.0,25.0,-100.00,NW,322,8.0,15.0,58,0.00,,,0.02,110.000000,,2013-03-02 22:42:00,
2013-03-02 17:52:00,38.0,25.0,-100.00,NW,322,8.0,15.0,58,0.00,,,0.02,110.000000,,2013-03-02 22:52:00,
2013-03-02 18:02:00,38.0,25.0,-100.00,NW,322,8.0,15.0,58,0.00,,,0.02,110.000000,,2013-03-02 23:02:00,
2013-03-02 18:32:00,36.0,25.0,-100.00,North,355,6.0,15.0,63,0.00,,,0.02,35.000000,,2013-03-02 23:32:00,
2013-03-02 18:42:00,36.0,25.0,-100.00,North,355,6.0,15.0,63,0.00,,,0.02,35.000000,,2013-03-02 23:42:00,
2013-03-02 18:52:00,36.0,25.0,-100.00,North,355,6.0,15.0,63,0.00,,,0.02,35.000000,,2013-03-02 23:52:00,
2013-03-02 19:02:00,36.0,25.0,-100.00,North,355,6.0,15.0,63,0.00,,,0.02,35.000000,,2013-03-03 00:02:00,
2013-03-02 19:32:00,35.0,23.0,-100.00,NW,323,5.0,14.0,61,0.00,,,0.02,2.000000,,2013-03-03 00:32:00,
2013-03-02 19:42:00,35.0,23.0,-100.00,NW,323,5.0,14.0,61,0.00,,,0.02,2.000000,,2013-03-03 00:42:00,
2013-03-02 19:52:00,35.0,23.0,-100.00,NW,323,5.0,14.0,61,0.00,,,0.02,2.000000,,2013-03-03 00:52:00,
2013-03-02 20:01:00,35.0,23.0,-100.00,NW,323,5.0,14.0,61,0.00,,,0.02,2.000000,,2013-03-03 01:01:00,
2013-03-02 20:32:00,34.0,22.0,-100.00,North,11,7.0,14.0,61,0.00,,,0.02,0.000000,,2013-03-03 01:32:00,
2013-03-02 20:42:00,34.0,22.0,-100.00,North,11,7.0,14.0,61,0.00,,,0.02,0.000000,,2013-03-03 01:42:00,
2013-03-02 20:52:00,34.0,22.0,-100.00,North,11,7.0,14.0,61,0.00,,,0.02,0.000000,,2013-03-03 01:52:00,
2013-03-02 21:01:00,34.0,22.0,-100.00,North,11,7.0,14.0,61,0.00,,,0.02,0.000000,,2013-03-03 02:01:00,
2013-03-02 21:32:00,33.0,22.0,-100.00,North,358,6.0,10.0,63,0.00,,,0.02,0.000000,,2013-03-03 02:32:00,
2013-03-02 21:42:00,33.0,22.0,-100.00,North,358,6.0,10.0,63,0.00,,,0.02,0.000000,,2013-03-03 02:42:00,
2013-03-02 21:52:00,33.0,22.0,-100.00,North,358,6.0,10.0,63,0.00,,,0.02,0.000000,,2013-03-03 02:52:00,
2013-03-02 22:02:00,33.0,22.0,-100.00,North,358,6.0,10.0,63,0.00,,,0.02,0.000000,,2013-03-03 03:02:00,
2013-03-02 22:32:00,33.0,23.0,-100.00,North,351,4.0,9.0,66,0.00,,,0.02,0.000000,,2013-03-03 03:32:00,
2013-03-02 22:42:00,33.0,23.0,-100.00,North,351,4.0,9.0,66,0.00,,,0.02,0.000000,,2013-03-03 03:42:00,
2013-03-02 22:52:00,33.0,23.0,-100.00,North,351,4.0,9.0,66,0.00,,,0.02,0.000000,,2013-03-03 03:52:00,
2013-03-02 23:01:00,33.0,23.0,-100.00,North,351,4.0,9.0,66,0.00,,,0.02,0.000000,,2013-03-03 04:01:00,
2013-03-02 23:32:00,33.0,25.0,-100.00,NW,325,3.0,7.0,72,0.00,,,0.02,0.000000,,2013-03-03 04:32:00,
2013-03-02 23:42:00,33.0,25.0,-100.00,NW,325,3.0,7.0,72,0.00,,,0.02,0.000000,,2013-03-03 04:42:00,
2013-03-02 23:52:00,33.0,25.0,-100.00,NW,325,3.0,7.0,72,0.00,,,0.02,0.000000,,2013-03-03 04:52:00,